GEFSNGP_500_meanwind_336.txt.gz
Wind_Speed
24 24 25 27 27 27 26 26 26 24 24 23 22 22 22 22 22 22 22 22 22 22 23 24 24 24 24 23 24 24 24 23 23 23 23 24 24 23 23 23 23 24 24 25
26 26 27 27 27 28 29 28 27 26 26 25 25 23 23 23 24 23 24 24 25 26 25 26 26 26 26 25 26 26 26 25 25 25 25 25 25 25 25 25 24 25 26 26
27 28 29 29 27 28 29 29 28 28 27 27 26 25 24 24 24 24 25 26 26 27 26 27 28 28 28 27 28 28 28 28 28 28 27 27 27 27 27 27 26 26 27 27
27 28 30 28 27 27 28 28 28 29 28 28 28 28 27 25 25 25 26 26 27 27 27 28 28 29 29 30 29 29 29 29 29 29 29 29 29 28 28 28 28 27 28 28
27 28 28 26 26 27 27 28 28 29 28 29 29 28 27 26 26 27 27 28 28 29 29 29 30 30 31 31 30 30 30 30 30 30 31 31 31 30 30 29 30 29 29 30
28 29 28 27 27 28 28 28 28 28 28 29 29 29 28 27 27 28 28 28 28 29 29 30 30 31 30 30 30 30 31 31 31 32 32 32 32 32 31 31 31 31 32 32
28 28 28 27 26 26 27 26 26 27 27 28 29 29 28 28 28 29 28 28 29 28 28 29 30 30 30 30 30 30 31 32 32 33 33 33 33 33 32 32 32 33 33 33
27 28 28 26 26 26 27 27 27 27 27 28 29 29 30 29 29 30 30 29 29 30 30 30 30 31 31 30 30 31 31 32 32 33 32 32 33 34 34 33 34 33 34 34
27 27 27 27 27 27 27 27 27 27 28 29 29 29 29 29 30 31 31 30 30 31 31 31 30 30 30 30 31 31 32 32 33 33 32 33 34 33 34 34 34 35 35 35
28 27 27 27 27 27 27 27 27 28 28 29 28 28 29 30 30 31 31 31 32 31 31 30 30 30 30 31 32 32 32 32 33 33 33 34 33 33 33 34 34 35 35 35
27 26 26 26 26 26 27 27 27 27 28 27 28 28 28 29 30 31 31 31 32 31 30 30 30 30 30 30 31 32 32 33 33 33 33 33 32 32 33 34 34 35 36 36
27 27 26 25 26 26 26 26 26 26 27 27 27 28 28 29 29 29 30 31 31 30 29 29 30 29 29 29 30 31 32 32 33 32 32 32 32 32 33 34 35 35 35 35
27 27 26 26 26 26 26 26 27 27 26 27 28 28 28 29 29 29 30 31 30 30 29 30 30 30 30 29 31 31 32 32 32 32 32 31 32 32 33 35 35 35 35 34
25 25 26 26 26 26 25 25 26 27 27 27 28 29 30 31 31 31 31 31 30 30 30 30 30 31 30 30 31 31 32 33 32 32 32 32 32 33 34 34 34 35 35 35
26 26 26 26 26 26 26 26 27 26 27 27 28 29 30 31 31 32 32 31 30 30 30 31 31 30 29 30 31 32 33 33 33 34 33 33 33 34 35 35 34 34 34 34
27 27 27 27 27 27 27 27 27 26 27 27 27 27 28 29 29 30 30 31 31 30 30 30 31 31 31 30 31 32 33 33 33 34 34 34 34 35 35 34 33 33 33 34
29 28 28 28 28 28 28 28 27 27 28 28 28 27 27 28 28 29 29 30 30 30 31 31 32 31 31 32 32 33 33 33 33 33 34 34 35 35 34 34 33 33 33 33
29 29 29 29 29 29 28 28 28 28 28 29 29 28 28 29 29 29 29 29 30 31 32 32 32 32 32 32 32 32 33 32 32 33 33 34 34 33 33 33 32 32 31 31
29 29 29 29 29 28 28 28 28 28 28 28 29 29 29 30 30 29 29 30 30 31 31 31 32 31 31 31 31 31 32 32 33 33 33 33 33 32 32 31 31 30 30 30
29 29 29 29 29 29 29 29 29 29 29 29 29 29 29 29 29 29 29 30 30 31 31 30 30 30 30 30 30 30 31 31 32 31 31 31 31 31 31 30 30 29 29 29
28 29 28 28 28 28 29 29 29 29 29 29 29 29 29 29 30 30 30 29 30 30 30 30 30 30 30 30 30 30 30 30 30 31 31 31 31 31 30 29 28 28 28 28
26 27 27 26 26 27 28 28 29 29 29 29 29 29 29 29 29 29 28 29 29 29 30 30 30 29 29 29 29 29 29 29 29 30 30 30 29 28 27 27 27 27 27 27
25 25 25 25 26 26 27 28 28 28 29 29 29 29 29 29 28 28 28 28 29 29 29 30 30 29 29 30 30 29 29 29 29 29 29 29 28 27 27 27 27 27 27 28
24 24 24 25 26 27 27 27 28 28 28 29 29 29 29 28 28 29 29 29 29 29 29 29 29 29 29 29 29 29 28 28 28 28 27 27 27 27 27 27 27 27 27 27
24 24 25 26 27 27 27 27 27 27 28 28 28 28 28 29 29 29 29 30 30 30 29 29 29 29 29 29 28 28 28 28 27 27 27 27 26 27 27 27 27 27 26 26
22 23 24 25 26 27 26 26 26 26 26 26 27 28 28 29 29 30 30 29 29 29 29 29 28 28 28 28 28 27 27 27 27 28 28 27 27 27 26 26 26 26 26 26
22 23 23 24 25 25 25 26 25 25 25 25 26 27 27 27 28 28 28 28 28 28 28 28 28 28 27 27 27 27 27 27 28 28 28 27 27 26 26 26 25 25 26 26

GEFSNGP_500_meanwind_342.txt.gz
Wind_Speed
22 22 22 22 22 22 22 21 21 20 20 21 21 21 20 20 21 22 22 21 21 21 21 22 21 21 22 23 23 24 24 24 25 25 25 25 25 26 26 27 28 28 28 28
23 23 23 23 23 23 23 24 24 23 23 22 23 23 23 23 24 23 23 23 23 23 23 24 24 24 25 25 26 26 26 26 26 26 26 27 28 28 29 28 29 29 29 30
23 24 24 24 24 23 24 25 25 25 24 24 24 24 24 25 25 25 24 25 24 24 24 25 25 26 26 27 28 28 28 29 29 28 28 29 29 30 30 31 31 31 31 31
24 25 25 24 25 24 25 25 25 26 26 26 25 25 25 25 25 25 26 26 26 26 26 26 26 27 27 28 29 30 30 30 30 30 30 30 30 31 31 32 32 32 32 32
25 25 25 26 25 25 25 25 25 26 25 25 25 26 26 26 26 27 27 27 27 27 27 26 27 27 28 28 29 30 31 31 31 31 31 31 31 31 31 32 32 32 33 33
26 25 25 26 26 25 25 26 25 25 25 26 26 27 27 26 27 27 28 28 28 28 28 27 27 28 28 29 30 31 31 31 32 31 31 32 31 31 32 33 33 33 33 33
26 25 26 26 25 24 25 25 25 24 25 25 26 27 27 27 27 28 28 28 29 29 29 29 29 28 29 29 30 31 31 31 32 32 31 31 32 32 32 33 33 33 33 34
26 26 27 26 25 25 25 25 25 25 25 26 26 27 27 28 28 28 28 29 29 30 29 30 30 30 29 29 30 31 31 31 31 31 32 32 32 32 33 33 33 33 34 34
27 27 27 26 26 25 25 25 25 25 25 25 25 26 27 28 28 28 29 29 29 30 30 30 30 30 30 30 31 32 32 32 31 32 33 32 32 32 33 33 33 34 34 35
27 27 27 27 26 26 25 25 25 25 24 24 25 26 27 27 28 28 28 29 30 31 31 31 31 31 31 30 30 31 31 31 31 31 31 31 32 32 32 32 33 34 34 33
27 27 27 27 27 26 26 25 24 24 24 25 25 26 26 26 27 27 28 29 30 31 31 31 30 31 30 30 30 30 30 31 31 32 32 32 32 32 31 31 32 33 32 32
27 27 26 26 26 26 26 26 25 25 25 25 25 25 26 27 28 28 29 29 30 30 30 30 30 30 31 31 31 30 30 30 31 31 31 31 31 31 31 31 31 31 31 30
27 27 27 26 26 26 26 26 26 25 25 26 26 26 26 27 28 28 28 29 29 30 30 30 30 31 31 31 31 30 30 30 31 31 30 30 30 30 30 30 29 29 29 29
27 27 26 26 26 26 26 26 26 26 26 26 27 27 27 27 28 28 28 28 29 29 30 30 30 30 30 30 31 31 31 30 30 31 30 30 31 31 31 30 29 29 29 30
28 28 27 27 26 26 26 26 26 26 27 27 27 27 28 28 28 28 28 29 29 29 29 29 29 29 29 29 30 31 31 31 31 30 30 30 30 30 30 30 29 29 30 30
27 27 27 27 27 26 26 26 26 26 27 27 27 27 27 27 28 28 28 28 29 29 29 29 29 29 29 29 30 30 30 31 31 30 30 31 31 30 30 30 29 29 29 29
27 27 27 27 27 27 27 27 27 27 27 27 27 27 27 27 28 28 29 29 29 29 29 29 29 29 30 30 30 30 30 31 31 30 30 30 30 30 30 30 30 29 29 28
28 28 28 28 29 28 28 28 27 27 27 27 27 28 28 28 28 28 28 28 29 29 30 30 29 29 30 30 30 30 30 29 29 29 29 29 29 29 29 29 29 28 28 28
28 28 29 29 29 29 28 28 28 28 28 28 28 29 29 29 29 29 29 29 29 29 29 29 29 30 30 30 30 30 29 29 29 29 29 29 29 29 29 28 29 28 28 28
29 29 29 29 28 29 29 29 29 29 29 29 28 28 29 29 29 29 30 30 30 29 29 29 29 30 30 30 29 28 28 28 28 28 29 29 29 29 29 28 28 28 28 28
28 29 29 29 29 29 29 30 30 29 29 29 28 28 28 29 29 30 30 31 30 30 30 30 31 30 30 29 29 29 28 28 28 27 28 28 28 28 28 27 27 27 27 27
27 28 28 29 29 30 30 30 29 29 29 29 29 29 29 29 29 30 30 30 30 30 30 30 30 30 29 29 28 28 28 28 28 27 27 27 27 27 26 26 27 27 27 27
26 27 27 28 28 28 28 28 28 29 29 29 29 30 30 30 30 30 30 29 29 30 29 29 29 30 29 28 28 29 29 28 28 27 27 27 27 27 26 26 27 27 27 27
25 25 26 26 27 27 28 28 28 28 29 29 29 29 30 30 30 30 29 28 29 29 29 28 28 28 28 28 28 28 28 28 27 26 27 27 27 27 27 27 27 27 27 27
23 24 24 25 25 26 27 27 28 28 28 28 28 29 29 29 29 29 28 29 29 29 28 28 28 28 29 28 29 28 28 27 27 26 26 27 27 27 27 27 27 27 27 27
22 23 24 24 25 25 25 26 26 26 26 27 27 28 28 28 28 27 27 28 28 28 28 29 29 28 29 29 28 28 28 27 27 26 26 27 28 27 27 26 27 27 27 27
20 21 21 22 22 23 24 24 24 24 24 25 26 26 26 26 26 27 27 27 27 27 27 27 28 28 28 27 27 27 27 27 27 27 27 28 27 26 26 26 27 27 27 26

GEFSNGP_500_meanwind_348.txt.gz
Wind_Speed
21 20 18 17 16 15 17 17 18 19 21 22 22 24 25 24 24 25 24 24 24 24 24 24 24 25 25 26 26 26 26 26 26 27 27 27 27 27 28 29 29 29 29 29
23 22 20 20 19 19 19 19 20 20 23 23 25 25 26 25 26 26 26 25 25 25 26 26 26 27 27 27 27 27 27 27 28 28 28 28 28 29 30 30 30 30 31 31
23 21 21 22 22 22 23 22 22 24 25 25 26 25 26 27 26 26 26 26 26 26 27 27 27 27 28 28 28 28 28 28 29 29 30 30 30 30 30 30 30 31 32 32
24 23 24 24 22 23 24 25 25 26 27 27 26 27 28 29 29 29 28 28 28 29 29 29 28 28 29 30 29 29 29 29 30 31 31 31 31 31 31 32 32 32 32 32
25 25 25 25 24 24 24 25 26 27 28 27 26 27 29 30 29 29 29 29 30 29 30 29 29 29 30 30 30 30 30 30 30 31 31 31 31 32 32 32 31 32 32 32
27 25 25 26 25 26 25 28 27 27 28 27 27 28 29 30 30 30 30 31 30 30 29 29 29 30 30 30 30 30 31 31 30 31 31 30 30 30 31 31 31 31 32 32
26 27 27 27 27 25 25 28 28 28 28 27 28 29 30 30 31 31 31 31 30 30 30 30 30 31 30 30 31 31 31 30 30 30 29 29 30 30 30 31 31 31 32 32
26 27 28 27 26 27 28 28 29 29 29 29 30 30 31 32 32 31 30 29 30 30 30 31 31 31 30 30 31 31 31 30 29 29 30 30 30 30 30 31 32 32 33 33
27 27 28 27 28 28 28 28 29 29 30 31 31 31 31 32 31 30 28 28 29 30 30 31 31 31 31 31 31 31 30 29 29 30 30 29 30 30 31 32 33 33 32 32
28 29 29 28 28 28 28 29 29 30 31 32 31 31 30 31 31 31 30 29 29 30 31 30 30 31 31 31 31 31 30 30 30 30 30 30 31 31 32 33 33 32 32 32
28 28 29 29 29 29 29 30 30 31 30 30 30 30 30 30 30 30 30 29 30 30 30 30 31 31 31 31 31 30 30 31 31 31 31 31 31 32 32 32 32 31 31 31
29 28 29 30 31 31 30 30 30 30 29 29 30 30 30 30 30 30 30 30 30 30 30 30 30 30 30 30 30 30 30 30 31 31 31 32 32 32 32 31 31 31 31 31
32 31 30 30 30 30 29 29 30 30 30 30 30 31 30 30 30 30 30 30 30 30 30 30 30 30 31 31 31 31 31 32 32 32 32 32 32 32 31 31 31 31 31 31
33 32 31 30 31 31 30 30 30 30 30 30 29 30 30 30 31 31 30 30 30 30 30 30 30 30 30 31 31 31 32 32 33 33 33 33 33 33 32 31 31 31 31 31
32 33 32 31 31 31 31 30 30 30 29 29 29 29 30 30 31 31 31 31 31 31 31 31 31 31 31 31 31 32 32 32 33 33 32 32 32 32 32 32 32 32 31 31
32 32 31 31 31 30 30 30 30 30 29 29 28 29 29 30 31 31 31 31 30 31 31 31 31 31 31 31 31 31 31 32 32 32 32 31 31 31 31 32 32 32 32 31
31 31 31 31 31 30 30 30 30 30 30 29 29 30 30 31 31 31 32 32 32 32 32 32 32 31 31 31 31 31 31 31 31 31 31 32 31 31 31 32 32 32 31 30
30 30 30 31 31 31 31 30 30 31 30 30 30 30 31 31 31 31 32 32 32 32 32 32 32 31 31 30 30 30 31 31 32 32 32 31 31 31 31 31 31 30 30 29
30 30 30 31 31 31 31 30 30 30 30 30 30 30 31 31 31 31 31 31 31 31 31 31 30 30 30 30 30 31 31 31 31 31 31 30 30 31 31 31 31 31 30 29
29 29 29 30 30 30 30 30 31 31 30 30 31 31 31 31 31 31 30 30 31 31 31 30 30 31 30 30 31 31 31 31 31 31 31 30 30 30 30 30 30 30 30 30
28 28 28 28 29 30 30 31 31 31 31 31 31 31 31 31 31 31 31 31 31 30 31 31 31 31 31 31 31 32 32 31 31 31 32 31 30 30 30 30 30 30 30 30
27 27 27 28 29 29 30 30 30 31 31 31 31 31 31 31 31 31 31 32 31 31 31 31 31 31 31 32 32 33 33 33 32 32 32 31 30 30 30 31 30 30 30 29
25 26 27 28 28 29 29 29 29 30 30 30 30 30 30 31 31 31 31 31 31 32 32 32 32 32 32 33 34 34 35 34 33 32 32 31 31 30 31 31 31 30 29 29
24 25 26 26 27 27 28 28 29 29 28 28 29 29 30 30 30 30 31 31 32 32 32 33 33 33 33 33 34 34 33 32 32 32 32 32 32 31 31 31 31 29 30 30
25 25 26 26 26 27 27 28 28 28 28 28 28 29 29 30 29 29 30 30 31 31 32 32 33 33 32 32 32 32 31 31 31 32 32 32 31 31 31 31 31 31 31 30
23 24 25 26 26 26 26 26 26 26 26 26 27 27 28 28 28 28 28 29 30 30 30 30 30 29 30 29 30 30 30 31 31 31 31 31 31 30 30 30 30 30 30 30
22 22 22 23 23 24 25 25 25 25 25 25 25 26 27 27 27 28 29 28 28 29 29 29 28 27 28 28 28 28 29 29 28 28 29 29 28 28 27 28 28 30 30 29

GEFSNGP_500_meanwind_354.txt.gz
Wind_Speed
21 21 21 21 21 21 21 21 21 19 20 20 20 20 21 21 22 21 22 22 22 22 23 23 22 23 23 23 23 24 24 25 25 25 25 26 26 26 27 26 25 25 25 25
23 23 23 24 23 23 22 23 23 23 23 22 23 23 23 23 23 22 22 23 24 23 24 24 24 24 24 25 25 26 27 27 27 27 27 27 26 26 26 26 26 26 26 26
25 25 25 25 24 25 25 25 26 26 26 25 25 24 24 25 25 25 24 24 25 26 26 26 26 26 27 28 27 27 28 28 28 28 28 28 27 26 26 26 27 26 27 26
26 25 26 24 24 25 26 28 28 28 28 28 27 26 26 26 26 27 27 26 26 27 28 27 27 28 29 29 28 28 28 29 29 29 29 28 27 27 28 28 27 27 27 26
26 26 25 24 23 24 26 27 27 28 28 28 27 28 27 27 27 28 28 27 27 28 28 28 28 29 29 28 28 28 28 29 29 29 28 28 27 28 28 28 27 27 27 27
26 27 26 24 23 24 25 27 27 28 29 28 28 28 28 28 29 29 29 30 29 29 29 29 28 28 28 28 28 29 29 29 29 29 28 28 27 27 28 28 28 28 27 28
26 26 27 25 24 24 26 27 27 27 28 28 28 28 28 28 29 30 30 30 30 29 29 30 29 28 28 28 29 29 29 29 29 29 28 27 27 28 28 29 28 28 29 29
26 26 27 25 24 24 25 26 26 27 27 28 28 27 27 28 29 30 30 30 29 29 29 29 28 27 28 28 29 29 29 29 29 28 28 28 28 28 28 29 29 29 29 29
27 28 27 27 26 26 26 27 28 28 28 27 27 26 26 27 28 28 29 29 29 29 28 28 28 28 29 29 29 30 30 30 29 28 28 28 28 28 28 28 29 30 30 29
29 28 28 28 28 28 27 27 27 27 28 28 28 28 28 28 29 29 28 28 28 28 28 27 28 28 29 30 30 31 31 30 29 28 28 28 29 29 30 30 30 29 29 29
29 28 28 28 28 28 28 28 29 29 29 28 28 29 28 28 28 27 27 27 27 27 27 28 28 29 29 30 31 31 30 29 29 29 29 29 29 30 30 30 30 29 29 29
29 29 29 28 29 29 29 29 29 30 30 28 28 29 29 28 28 28 28 28 28 28 28 29 29 30 31 31 31 30 29 29 29 29 30 30 29 30 30 30 30 30 30 30
28 29 29 29 29 30 30 30 30 30 29 28 28 28 28 28 28 28 28 28 28 29 29 30 30 31 31 31 31 31 31 30 29 30 30 30 30 30 30 30 30 30 30 30
30 31 31 30 30 30 30 30 30 29 28 28 28 28 28 28 28 29 28 28 29 30 31 31 32 32 32 32 32 32 32 32 31 30 30 30 30 31 30 30 29 30 30 30
30 31 32 32 31 31 30 29 29 28 28 28 29 29 28 28 29 29 29 30 31 31 32 32 32 32 33 32 32 32 32 32 32 31 31 30 30 31 30 30 30 30 30 30
30 31 31 31 31 31 30 30 30 30 29 28 28 28 28 29 29 29 29 30 31 32 32 31 32 32 32 32 32 32 32 32 32 32 31 31 30 31 30 30 30 29 29 30
31 31 31 31 31 31 30 30 29 28 28 27 28 28 29 29 29 28 29 30 30 31 31 31 32 32 32 32 32 32 32 32 32 32 31 31 31 30 30 29 29 28 29 29
29 29 29 30 30 30 30 30 30 29 29 29 28 28 29 30 29 29 29 30 30 31 31 31 32 32 32 32 31 31 31 31 31 31 31 30 30 29 29 28 28 29 29 30
28 28 28 28 29 29 29 30 30 31 31 31 31 30 30 30 30 30 30 30 30 30 31 31 32 32 32 31 31 31 30 30 30 30 30 29 29 29 29 29 29 30 30 30
27 27 27 28 28 29 29 29 30 30 30 30 31 31 31 31 31 31 31 31 32 32 32 31 32 31 31 31 31 30 30 30 30 30 29 29 29 30 30 30 31 31 31 31
26 27 28 28 28 28 29 29 29 30 30 31 31 31 31 31 32 31 31 32 32 32 31 31 30 30 30 30 30 30 30 30 30 30 30 30 30 30 31 31 31 31 31 31
24 25 26 27 27 28 29 30 30 30 30 30 31 31 31 31 31 31 31 31 31 31 31 30 29 30 30 30 31 31 31 31 31 31 30 31 31 31 31 31 31 31 31 31
24 24 25 25 26 27 28 28 28 29 30 30 30 30 30 31 31 30 30 30 30 30 30 29 29 29 30 30 31 31 31 31 31 31 31 31 31 31 31 31 30 30 30 30
23 24 24 24 25 26 26 26 26 27 28 28 29 29 29 30 30 30 30 30 29 29 29 29 29 29 29 30 31 31 30 30 30 31 31 30 30 30 30 30 29 29 29 29
22 22 23 24 24 25 25 25 26 25 26 26 27 28 28 28 28 28 28 28 28 28 29 29 29 29 30 30 30 30 29 30 30 30 29 29 29 29 29 29 29 28 28 28
21 21 22 22 23 23 24 24 24 25 25 25 25 26 26 25 25 25 25 25 26 26 27 27 28 28 28 28 28 27 27 27 28 28 28 27 27 27 28 28 28 28 28 28
21 20 21 21 22 22 22 23 23 23 23 24 23 23 23 23 23 23 23 24 24 25 25 25 25 25 26 26 26 26 26 26 26 26 26 26 27 27 28 27 27 27 27 27